DLONG RJAA-RJFO

Flight info

Callsign DLONG
Flight time N/A
Altitude 38000
Route REDEK Y60 TOKOM Y604 WASYU Y28 MARCO Y45 YANAI BAIEN TFE
Aircraft A320/M-SDE3FGHIRWY/LB1

Departure

Time N/A
Airport Narita International Airport (RJAA)

Arrival

Time 2026-04-27 17:06
Airport Oita Airport (RJFO)
Time Latitude Longitude Altitude Speed Heading
2026-04-27 16:12 35.05903 136.95973 37904 ft 351 kts 254°
2026-04-27 16:12 35.05094 136.93155 37911 ft 352 kts 254°
2026-04-27 16:13 35.02594 136.84737 37919 ft 354 kts 253°
2026-04-27 16:13 35.00165 136.76214 37923 ft 355 kts 255°
2026-04-27 16:14 34.97387 136.64657 37959 ft 356 kts 256°
2026-04-27 16:15 34.94516 136.53102 37965 ft 356 kts 255°
2026-04-27 16:16 34.91616 136.41532 37969 ft 357 kts 255°
2026-04-27 16:17 34.88725 136.29987 37974 ft 358 kts 255°
2026-04-27 16:18 34.85806 136.18397 37969 ft 358 kts 254°
2026-04-27 16:19 34.84337 136.12601 37973 ft 358 kts 254°
2026-04-27 16:20 34.81386 136.00988 37965 ft 360 kts 254°
2026-04-27 16:21 34.79164 135.92260 37968 ft 361 kts 253°
2026-04-27 16:22 34.76182 135.80591 37967 ft 362 kts 253°
2026-04-27 16:22 34.73915 135.71803 37959 ft 364 kts 253°
2026-04-27 16:23 34.71651 135.63018 37960 ft 366 kts 253°
2026-04-27 16:24 34.70127 135.57109 37961 ft 367 kts 253°
2026-04-27 16:25 34.67062 135.45264 37965 ft 368 kts 253°
2026-04-27 16:26 34.64466 135.33211 37959 ft 370 kts 257°
2026-04-27 16:27 34.62266 135.20980 37960 ft 372 kts 257°
2026-04-27 16:28 34.59493 135.05633 37958 ft 373 kts 257°
2026-04-27 16:29 34.56705 134.90261 37961 ft 375 kts 257°
2026-04-27 16:30 34.54434 134.77876 37972 ft 377 kts 257°
2026-04-27 16:31 34.51572 134.62341 37964 ft 378 kts 257°
2026-04-27 16:32 34.49838 134.53009 37966 ft 379 kts 257°
2026-04-27 16:33 34.48091 134.43655 37967 ft 380 kts 257°
2026-04-27 16:33 34.47118 134.38463 37968 ft 380 kts 257°
2026-04-27 16:34 34.45940 134.32208 37969 ft 381 kts 257°
2026-04-27 16:34 34.44753 134.25932 37972 ft 382 kts 257°
2026-04-27 16:35 34.43604 134.19644 37969 ft 383 kts 261°
2026-04-27 16:36 34.43768 134.09979 37971 ft 386 kts 271°
2026-04-27 16:36 34.44094 134.03484 37974 ft 387 kts 270°
2026-04-27 16:37 34.44416 133.96981 37971 ft 387 kts 270°
2026-04-27 16:37 34.44737 133.90460 37978 ft 388 kts 270°
2026-04-27 16:38 34.45058 133.83921 37980 ft 389 kts 270°
2026-04-27 16:38 34.45371 133.77375 37985 ft 390 kts 270°
2026-04-27 16:39 34.45679 133.70812 37980 ft 390 kts 270°
2026-04-27 16:39 34.45981 133.64238 37986 ft 391 kts 270°
2026-04-27 16:40 34.46287 133.57657 37988 ft 392 kts 271°
2026-04-27 16:40 34.46591 133.51063 37980 ft 392 kts 270°
2026-04-27 16:41 34.46890 133.44454 37984 ft 393 kts 271°
2026-04-27 16:41 34.46755 133.37867 37988 ft 391 kts 258°
2026-04-27 16:42 34.45040 133.31615 37971 ft 392 kts 250°
2026-04-27 16:42 34.43108 133.25439 37966 ft 393 kts 250°
2026-04-27 16:43 34.41171 133.19249 37968 ft 393 kts 250°
2026-04-27 16:43 34.39229 133.13096 37970 ft 394 kts 250°
2026-04-27 16:44 34.37249 133.06898 37973 ft 395 kts 250°
2026-04-27 16:44 34.35267 133.00694 37979 ft 396 kts 250°
2026-04-27 16:45 34.33283 132.94482 37977 ft 396 kts 250°
2026-04-27 16:45 34.31290 132.88266 37975 ft 397 kts 250°
2026-04-27 16:46 34.29311 132.82030 37982 ft 397 kts 250°
2026-04-27 16:46 34.27352 132.75786 37994 ft 397 kts 250°
2026-04-27 16:47 34.25378 132.69542 37994 ft 398 kts 250°
2026-04-27 16:47 34.23398 132.63290 37996 ft 399 kts 250°
2026-04-27 16:47 34.22403 132.60161 37650 ft 399 kts 250°
2026-04-27 16:48 34.21407 132.57028 36155 ft 403 kts 251°
2026-04-27 16:48 34.20391 132.53836 34564 ft 411 kts 251°
2026-04-27 16:48 34.19363 132.50586 32824 ft 418 kts 251°
2026-04-27 16:49 34.17269 132.43958 29019 ft 432 kts 251°
2026-04-27 16:49 34.16197 132.40583 27736 ft 424 kts 251°
2026-04-27 16:49 34.15156 132.37324 26732 ft 412 kts 251°
2026-04-27 16:49 34.14124 132.34085 25652 ft 414 kts 251°
2026-04-27 16:50 34.13088 132.30823 24611 ft 418 kts 251°
2026-04-27 16:50 34.12044 132.27536 23589 ft 420 kts 251°
2026-04-27 16:50 34.11005 132.24275 22409 ft 416 kts 251°
2026-04-27 16:50 34.09918 132.21063 21280 ft 412 kts 246°
2026-04-27 16:51 34.08451 132.18110 20367 ft 411 kts 236°
2026-04-27 16:51 34.06593 132.15489 19541 ft 412 kts 227°
2026-04-27 16:51 34.04366 132.13261 18699 ft 420 kts 217°
2026-04-27 16:51 34.01811 132.11522 17794 ft 425 kts 207°
2026-04-27 16:52 33.99094 132.10118 16955 ft 424 kts 206°
2026-04-27 16:52 33.96391 132.08718 16158 ft 422 kts 206°
2026-04-27 16:52 33.93704 132.07319 15387 ft 420 kts 206°
2026-04-27 16:52 33.91031 132.05925 14686 ft 417 kts 206°
2026-04-27 16:53 33.88375 132.04542 14012 ft 414 kts 206°
2026-04-27 16:53 33.85741 132.03175 13321 ft 410 kts 206°
2026-04-27 16:53 33.83137 132.01827 12660 ft 405 kts 206°
2026-04-27 16:53 33.80566 132.00496 12007 ft 400 kts 206°
2026-04-27 16:54 33.78047 131.99135 11392 ft 393 kts 210°
2026-04-27 16:54 33.75805 131.97418 11222 ft 372 kts 220°
2026-04-27 16:54 33.73799 131.95573 11102 ft 355 kts 220°
2026-04-27 16:54 33.71881 131.93818 10974 ft 339 kts 220°
2026-04-27 16:55 33.70042 131.92141 10855 ft 325 kts 220°
2026-04-27 16:55 33.68272 131.90531 10713 ft 313 kts 220°
2026-04-27 16:55 33.66566 131.88978 10566 ft 303 kts 220°
2026-04-27 16:55 33.64905 131.87458 10401 ft 298 kts 220°
2026-04-27 16:56 33.63262 131.85950 10333 ft 297 kts 220°
2026-04-27 16:56 33.61618 131.84443 10216 ft 297 kts 220°
2026-04-27 16:56 33.59979 131.82940 10100 ft 297 kts 220°
2026-04-27 16:56 33.58340 131.81438 9931 ft 297 kts 220°
2026-04-27 16:57 33.56697 131.79933 9355 ft 302 kts 220°
2026-04-27 16:57 33.55043 131.78421 9030 ft 297 kts 220°
2026-04-27 16:57 33.53403 131.76923 8603 ft 296 kts 220°
2026-04-27 16:57 33.51771 131.75435 8197 ft 294 kts 220°
2026-04-27 16:58 33.50145 131.73956 7786 ft 293 kts 219°
2026-04-27 16:58 33.48377 131.72755 7389 ft 294 kts 204°
2026-04-27 16:58 33.46414 131.72057 6992 ft 294 kts 196°
2026-04-27 16:58 33.44441 131.71436 6546 ft 291 kts 197°
2026-04-27 16:59 33.42491 131.70819 5850 ft 289 kts 197°
2026-04-27 16:59 33.40554 131.70204 5094 ft 288 kts 196°
2026-04-27 16:59 33.38626 131.69592 4436 ft 283 kts 195°
2026-04-27 16:59 33.36789 131.69009 4221 ft 262 kts 195°
2026-04-27 17:00 33.34042 131.68135 4022 ft 231 kts 195°
2026-04-27 17:00 33.31989 131.67683 3883 ft 226 kts 171°
2026-04-27 17:00 33.30595 131.68387 3704 ft 215 kts 134°
2026-04-27 17:01 33.29833 131.69826 3489 ft 201 kts 99°
2026-04-27 17:01 33.29838 131.71429 3294 ft 189 kts 69°
2026-04-27 17:01 33.30474 131.72707 3151 ft 174 kts 42°
2026-04-27 17:01 33.31489 131.73438 3003 ft 171 kts 18°
2026-04-27 17:02 33.32671 131.73583 2818 ft 172 kts
2026-04-27 17:02 33.33865 131.73591 2592 ft 172 kts
2026-04-27 17:02 33.35041 131.73599 2373 ft 171 kts
2026-04-27 17:02 33.36236 131.73609 2144 ft 173 kts
2026-04-27 17:03 33.37443 131.73620 1912 ft 174 kts
2026-04-27 17:03 33.38611 131.73630 1693 ft 160 kts
2026-04-27 17:03 33.39652 131.73639 1479 ft 142 kts
2026-04-27 17:03 33.40615 131.73648 1291 ft 136 kts
2026-04-27 17:04 33.41553 131.73656 1103 ft 134 kts
2026-04-27 17:04 33.42486 131.73664 901 ft 134 kts
2026-04-27 17:04 33.43420 131.73673 701 ft 135 kts 360°
2026-04-27 17:04 33.44378 131.73689 516 ft 140 kts
2026-04-27 17:05 33.45358 131.73696 330 ft 142 kts 360°
2026-04-27 17:05 33.46364 131.73693 123 ft 146 kts
2026-04-27 17:05 33.47331 131.73706 27 ft 123 kts
2026-04-27 17:05 33.47812 131.73710 27 ft 88 kts
2026-04-27 17:06 33.48319 131.73714 27 ft 17 kts
2026-04-27 17:06 33.48366 131.73703 27 ft 6 kts 335°
2026-04-27 17:06 33.48396 131.73638 27 ft 12 kts 278°
2026-04-27 17:06 33.48383 131.73542 27 ft 11 kts 234°
2026-04-27 17:07 33.48318 131.73515 27 ft 9 kts 181°
2026-04-27 17:07 33.48255 131.73515 27 ft 10 kts 180°
2026-04-27 17:07 33.48165 131.73514 27 ft 15 kts 180°
2026-04-27 17:07 33.48055 131.73514 27 ft 17 kts 180°
2026-04-27 17:08 33.47927 131.73512 27 ft 20 kts 180°
2026-04-27 17:08 33.47784 131.73512 27 ft 21 kts 179°
2026-04-27 17:08 33.47696 131.73494 27 ft 6 kts 265°
2026-04-27 17:08 33.47687 131.73412 27 ft 10 kts 271°
2026-04-27 17:09 33.47695 131.73356 27 ft 6 kts 271°
2026-04-27 17:09 33.47695 131.73344 27 ft 0 kts 271°
2026-04-27 17:10 33.47675 131.73370 41 ft 0 kts 358°
2026-04-27 17:10 33.47699 131.73341 42 ft 0 kts 272°
2026-04-27 17:13 33.47675 131.73370 41 ft 0 kts 358°